DW5978 Whyalla SA AU current weather conditions

sailwx.info

Last reported at 2015-Apr-27 19:52 UTC.
Time now 2015-Apr-27 20:47 UTC

Location: S 33°01' E 137°32'.
View on Google Maps.

See reports from other nearby stations

  
Tides and Currents Weather Stations Pressure Air Temp Water Temp Dewpoint Dewpoint Depression Visibility Wind Speed Wind Dir Waves Ship Positions
date/time (UTC)wind fromknots sea level pressurealtimeterstation pressurevisibilityair tempwater tempwave heightnotes
2015-Apr-27 19:52
2015-Apr-27 19:37
2015-Apr-27 19:21
2015-Apr-27 19:06
2015-Apr-27 18:51
2015-Apr-27 18:36
2015-Apr-27 18:21
2015-Apr-27 18:06 228 11.1
2015-Apr-27 17:51 229 11.7
2015-Apr-27 17:36 228 11.7
2015-Apr-27 17:21 228 11.7
2015-Apr-27 17:06 228 11.7
2015-Apr-27 16:51 228 12.2
2015-Apr-27 16:36 228 12.2
2015-Apr-27 16:21 228 12.2
2015-Apr-27 16:07 228 12.2
2015-Apr-27 15:51 228 12.2
2015-Apr-27 15:36 228 12.8
2015-Apr-27 15:21 226 12.8
2015-Apr-27 15:06 240 1 gusting 2 12.8
2015-Apr-27 14:51 240 12.8
2015-Apr-27 14:36 243 12.8
2015-Apr-27 14:21 243 12.8
2015-Apr-27 14:06 243 12.8
2015-Apr-27 13:51 240 12.8
2015-Apr-27 13:36 240 0 gusting 2 12.8
2015-Apr-27 13:21 215 0 gusting 5 12.8
2015-Apr-27 13:06 235 3 gusting 6 12.8
2015-Apr-27 12:50 246 3 gusting 10 12.8
2015-Apr-27 12:35 218 5 gusting 8 13.3
2015-Apr-27 12:20 218 3 gusting 7 13.9
2015-Apr-27 12:05 186 2 gusting 6 13.9
2015-Apr-27 11:50 215 4 gusting 10 13.9
2015-Apr-27 11:35 210 3 gusting 9 14.4
2015-Apr-27 11:20 170 3 gusting 9 14.4
2015-Apr-27 11:05 193 3 gusting 6 14.4
2015-Apr-27 10:50 218 2 gusting 6 14.4
2015-Apr-27 10:35 190 3 gusting 7 14.4
2015-Apr-27 10:20 205 5 gusting 9 15.0
2015-Apr-27 10:05 201 6 gusting 12 15.0
2015-Apr-27 09:50 174 3 gusting 8 15.0
2015-Apr-27 09:35 207 5 gusting 11 15.6
2015-Apr-27 09:20 160 3 gusting 9 15.6
2015-Apr-27 09:05 193 3 gusting 5 15.6
2015-Apr-27 08:35 180 2 gusting 7 15.6
2015-Apr-27 08:20 181 2 gusting 6 15.6
2015-Apr-27 08:05 162 3 gusting 5 15.6
2015-Apr-27 07:50 142 2 gusting 9 15.6
2015-Apr-27 07:35 190 4 gusting 8 16.1
2015-Apr-27 07:20 165 2 gusting 7 16.1
2015-Apr-27 07:05 210 4 gusting 9 16.7
2015-Apr-27 06:50 176 5 gusting 10 17.2
2015-Apr-27 06:35 137 1 gusting 9 17.2
2015-Apr-27 06:20 165 5 gusting 11 17.2
2015-Apr-27 06:05 162 2 gusting 5 17.2
2015-Apr-27 05:50 150 3 gusting 8 17.2
2015-Apr-27 05:35 177 3 gusting 11 16.7
2015-Apr-27 05:20 159 5 gusting 10 16.7
2015-Apr-27 05:05 148 5 gusting 11 16.7
2015-Apr-27 04:50 226 3 gusting 7 16.7
2015-Apr-27 04:35 165 4 gusting 8 16.7
2015-Apr-27 04:20 148 3 gusting 11 16.7
2015-Apr-27 04:05 153 4 gusting 13 16.7
2015-Apr-27 03:50 199 6 gusting 13 16.7
2015-Apr-27 03:35 145 3 gusting 11 16.7
2015-Apr-27 03:20 141 3 gusting 9 16.1
2015-Apr-27 03:05 105 4 gusting 9 16.1
2015-Apr-27 02:50 129 2 gusting 7 16.1
2015-Apr-27 02:35 156 2 gusting 7 16.1
2015-Apr-27 02:20 177 4 gusting 7 16.1
2015-Apr-27 02:05 146 4 gusting 9 16.1
2015-Apr-27 01:50 156 3 gusting 11 15.6
2015-Apr-27 01:35 123 3 gusting 8 15.6
2015-Apr-27 01:19 109 3 gusting 6 15.0
2015-Apr-27 01:04 129 4 gusting 9 15.0
2015-Apr-27 00:49 131 3 gusting 8 15.0
2015-Apr-27 00:34 105 3 gusting 10 15.0
2015-Apr-27 00:19 092 4 gusting 9 15.0
2015-Apr-27 00:04 173 3 gusting 9 14.4
2015-Apr-26 23:49 176 6 gusting 10 14.4
2015-Apr-26 23:34 190 3 gusting 9 14.4
2015-Apr-26 23:19 123 1 gusting 6 14.4
2015-Apr-26 23:04 138 2 gusting 5 14.4
2015-Apr-26 22:49 153 1 gusting 5 14.4
2015-Apr-26 22:34 145 0 gusting 3 13.9
2015-Apr-26 22:19
2015-Apr-26 22:04
2015-Apr-26 21:49
2015-Apr-26 21:34
2015-Apr-26 21:19
2015-Apr-26 21:04
2015-Apr-26 20:49
2015-Apr-26 20:34
2015-Apr-26 20:19
2015-Apr-26 20:03
2015-Apr-26 19:48
2015-Apr-26 19:33
2015-Apr-26 19:18
2015-Apr-26 19:03
2015-Apr-26 18:48
2015-Apr-26 18:33
2015-Apr-26 18:18 210 0 gusting 2 13.9
2015-Apr-26 18:03 212 0 gusting 4 13.9
2015-Apr-26 17:48 106 0 gusting 3 13.9
2015-Apr-26 17:33 102 1 gusting 5 13.9
2015-Apr-26 17:18 148 1 gusting 3 13.9
2015-Apr-26 17:03 102 0 gusting 3 13.3
2015-Apr-26 16:48 131 0 gusting 3 13.9
2015-Apr-26 16:33 148 1 gusting 3 13.9
2015-Apr-26 16:18 150 1 gusting 4 13.9
2015-Apr-26 16:03 124 1 gusting 6 14.4
2015-Apr-26 15:48 167 2 gusting 7 14.4
2015-Apr-26 15:33 132 2 gusting 6 14.4
2015-Apr-26 15:18 123 1 gusting 4 14.4
2015-Apr-26 15:03 100 1 gusting 4 14.4
2015-Apr-26 14:48 115 2 gusting 6 14.4
2015-Apr-26 14:33 127 2 gusting 5 14.4
2015-Apr-26 14:18 141 1 gusting 5 14.4
2015-Apr-26 14:03 148 0 gusting 4 14.4
2015-Apr-26 13:48 139 2 gusting 7 14.4
2015-Apr-26 13:33 148 2 gusting 6 15.0
2015-Apr-26 13:18 132 1 gusting 6 15.0
2015-Apr-26 13:02 151 2 gusting 6 15.0
2015-Apr-26 12:47 170 2 gusting 5 15.0
2015-Apr-26 12:32 148 3 gusting 8 15.0
2015-Apr-26 12:17 120 3 gusting 6 15.0
2015-Apr-26 12:02 156 2 gusting 6 15.0
2015-Apr-26 11:47 156 4 gusting 6 15.0
2015-Apr-26 11:32 156 4 gusting 6 15.0
2015-Apr-26 11:17 141 2 gusting 7 15.0
2015-Apr-26 11:02 149 4 gusting 10 15.0
2015-Apr-26 10:47 195 4 gusting 8 15.0
2015-Apr-26 10:32 222 2 gusting 5 15.0
2015-Apr-26 10:17 188 2 gusting 6 14.4
2015-Apr-26 10:02 190 3 gusting 7 14.4
2015-Apr-26 09:47 213 3 gusting 6 14.4
2015-Apr-26 09:32 235 3 gusting 5 14.4
2015-Apr-26 09:02 136 3 gusting 8 15.0
2015-Apr-26 08:47 187 4 gusting 8 15.0
2015-Apr-26 08:32 204 5 gusting 8 15.0
2015-Apr-26 08:17 210 3 gusting 11 15.6
2015-Apr-26 08:02 201 4 gusting 11 16.1
2015-Apr-26 07:47 207 7 gusting 13 16.1
2015-Apr-26 07:32 214 5 gusting 12 16.7
2015-Apr-26 07:17 173 6 gusting 12 16.7
2015-Apr-26 07:02 131 4 gusting 11 17.2
2015-Apr-26 06:47 154 4 gusting 12 16.7
2015-Apr-26 06:32 162 6 gusting 14 17.2
2015-Apr-26 06:17 170 5 gusting 13 17.2
2015-Apr-26 06:02 210 6 gusting 14 16.7
2015-Apr-26 05:47 212 6 gusting 13 16.7
2015-Apr-26 05:32 193 8 gusting 15 17.2
2015-Apr-26 05:17 210 7 gusting 13 17.2
2015-Apr-26 05:02 150 7 gusting 12 17.2
2015-Apr-26 04:47 186 5 gusting 17 17.2
2015-Apr-26 04:32 181 6 gusting 12 16.7
2015-Apr-26 04:17 156 5 gusting 13 16.7
2015-Apr-26 04:02 170 3 gusting 10 16.7
2015-Apr-26 03:47 204 4 gusting 10 16.7
2015-Apr-26 03:32 139 4 gusting 11 16.7
2015-Apr-26 03:17 096 4 gusting 9 16.1
2015-Apr-26 03:02 159 5 gusting 10 16.1
2015-Apr-26 02:47 170 6 gusting 13 16.1
2015-Apr-26 02:32 168 6 gusting 13 16.1
2015-Apr-26 02:17 215 6 gusting 10 16.1
2015-Apr-26 02:02 168 6 gusting 11 15.6
2015-Apr-26 01:47 162 4 gusting 12 15.6
2015-Apr-26 01:32 150 4 gusting 7 15.6
2015-Apr-26 01:17 165 4 gusting 10 15.6
2015-Apr-26 01:02 170 5 gusting 9 15.0
2015-Apr-26 00:47 210 5 gusting 7 15.0
2015-Apr-26 00:32 153 3 gusting 9 14.4
2015-Apr-26 00:16 207 4 gusting 6 13.9
2015-Apr-26 00:01 223 3 gusting 6 13.9
2015-Apr-25 23:46 240 2 gusting 6 13.3
2015-Apr-25 23:31 210 4 gusting 10 13.3
2015-Apr-25 23:16 235 4 gusting 7 12.8
2015-Apr-25 23:01 215 3 gusting 6 12.8
2015-Apr-25 22:46 241 2 gusting 6 12.2
2015-Apr-25 22:31 249 1 gusting 3 11.7
2015-Apr-25 22:16 252 0 gusting 3 11.1
2015-Apr-25 22:01 249 1 gusting 6 11.1
2015-Apr-25 21:46 246 2 gusting 4 11.1
2015-Apr-25 21:31
2015-Apr-25 21:16
2015-Apr-25 21:01
2015-Apr-25 20:46
2015-Apr-25 20:31
2015-Apr-25 20:16